Вернуться в каталог

DELTA 1 DEB

АктивенLEO
NORAD 10211·DEBRIS·🇺🇸 United States

Запущен Jul 14, 1977 с Cape Canaveral Space Force Station

Loading…

Ближайшие Пролёты (ближайшие 24 часа)

TLE

СвежийSource: Space-Track

Эпоха: Sep 14, 2026, 03:49 UTC

1 10211U 77065AQ  26257.15923080  .00001565  00000-0  31010-2 0  9994
2 10211  29.4777 221.9735 0652302 321.6565  33.9294 12.71822304122261

Отслеживайте DELTA 1 DEB в реальном времени с AllMySat

Download on the App Store